Location: Unspecified
(43.4680°N, 87.1740°E)
Time: 22:04:11
(UTC+00:00)

COSMOS 2428 - Pass Details

Date: 17 January 2020
Orbit: 844 x 858 km, 70.9° (Epoch: 17 February)

Event Time Altitude Azimuth Distance (km) Brightness Sun altitude
Rises 12:40:07 0° 333° (NNW) 3,440 6.1 -17.5°
Reaches altitude 10° 12:42:35 10° 332° (NNW) 2,500 5.3 -17.9°
Maximum altitude 12:48:19 75° 248° (WSW) 891 2.9 -18.9°
Drops below altitude 10° 12:54:01 10° 164° (SSE) 2,482 5.1 -19.9°
Sets 12:56:28 0° 163° (SSE) 3,414 5.8 -20.4°
